Safford, AZ

4:21 PM MST on January 20, 2018 (GMT -0700)
Safford Regional

Weather History for KSAD - October, 2012

Change the Weather History Date:

Wednesday, October 17, 2012

  Actual Average Record
Temperature  
Mean Temperature 70 °F -  
Max Temperature 89 °F 79 °F 94 °F (1950)
Min Temperature 51 °F 45 °F 31 °F (1966)
Cooling Degree Days 5    
Growing Degree Days 20 (Base 50)    
Moisture  
Dew Point 27 °F    
Average Humidity 21    
Maximum Humidity 31    
Minimum Humidity 12    
Precipitation  
Precipitation 0.00 in - - ()
Sea Level Pressure  
Sea Level Pressure 29.80 in    
Wind  
Wind Speed 8 mph (WNW)    
Max Wind Speed 23 mph    
Max Gust Speed 26 mph    
Visibility 10 miles    
Events      
Averages and records for this station are not official NWS values.
T = Trace of Precipitation, MM = Missing Value Source: NWS Daily Summary

Daily Weather History Graph

Daily Weather History Graph

Search for Another Location

Airport or City:

Trip Planner

Search our weather history database for the weather conditions in past years. The results will help you decide how hot, cold, wet, or windy it might be!

Date:

Astronomy

Oct. 17, 2012 Rise Set
Actual Time 6:24 AM MST 5:42 PM MST
Civil Twilight 5:59 AM MST 6:07 PM MST
Nautical Twilight 5:30 AM MST 6:35 PM MST
Astronomical Twilight 5:02 AM MST 7:04 PM MST
Moon 8:53 AM MST (10/17) 7:31 PM MST (10/17)
Length of Visible Light 12h 07m
Length of Day
11h 17m
Waxing Crescent, 8% of the Moon is Illuminated
Oct 17
Waxing Crescent
Oct 21
First Quarter
Oct 29
Full
Nov 6
Last Quarter
Nov 13
New

Hourly Weather History & Observations

Time (MST) Temp. Dew Point Humidity Pressure Visibility Wind Dir Wind Speed Gust Speed Precip Events Conditions
12:51 AM 57.9 °F 21.0 °F 24% 29.77 in 10.0 mi East 4.6 mph - N/A   Clear
1:51 AM 57.9 °F 21.9 °F 25% 29.77 in 10.0 mi South 5.8 mph - N/A   Clear
2:51 AM 54.0 °F 21.0 °F 28% 29.78 in 10.0 mi East 5.8 mph - N/A   Clear
3:51 AM 51.1 °F 21.0 °F 31% 29.80 in 10.0 mi East 4.6 mph - N/A   Clear
4:51 AM 53.1 °F 21.9 °F 30% 29.81 in 10.0 mi SSE 5.8 mph - N/A   Clear
5:51 AM 55.0 °F 23.0 °F 29% 29.82 in 10.0 mi Calm Calm - N/A   Clear
6:51 AM 52.0 °F 21.9 °F 31% 29.85 in 10.0 mi SSE 5.8 mph - N/A   Clear
7:51 AM 60.1 °F 25.0 °F 26% 29.86 in 10.0 mi ESE 4.6 mph - N/A   Clear
8:51 AM 68.0 °F 26.1 °F 21% 29.86 in 10.0 mi Calm Calm - N/A   Clear
9:51 AM 73.0 °F 27.0 °F 18% 29.86 in 10.0 mi Calm Calm - N/A   Clear
10:51 AM 80.1 °F 28.9 °F 15% 29.83 in 10.0 mi West 9.2 mph - N/A   Clear
11:51 AM 84.0 °F 30.0 °F 14% 29.80 in 10.0 mi West 12.7 mph 20.7 mph N/A   Clear
12:51 PM 87.1 °F 30.0 °F 13% 29.76 in 10.0 mi West 18.4 mph 24.2 mph N/A   Clear
1:51 PM 88.0 °F 30.0 °F 12% 29.73 in 10.0 mi WNW 15.0 mph 23.0 mph N/A   Clear
2:51 PM 89.1 °F 28.9 °F 12% 29.73 in 10.0 mi WNW 17.3 mph 26.5 mph N/A   Clear
3:51 PM 88.0 °F 30.0 °F 12% 29.74 in 10.0 mi West 23.0 mph 26.5 mph N/A   Clear
4:51 PM 84.9 °F 30.0 °F 14% 29.75 in 10.0 mi West 15.0 mph - N/A   Clear
5:51 PM 82.0 °F 30.9 °F 16% 29.76 in 10.0 mi WNW 13.8 mph - N/A   Clear
6:51 PM 79.0 °F 32.0 °F 18% 29.80 in 10.0 mi NW 18.4 mph 24.2 mph N/A   Clear
7:51 PM 75.9 °F 32.0 °F 20% 29.83 in 10.0 mi WNW 12.7 mph - N/A   Clear
8:51 PM 73.9 °F 30.9 °F 21% 29.84 in 10.0 mi NW 13.8 mph - N/A   Clear
9:51 PM 71.1 °F 30.9 °F 23% 29.85 in 10.0 mi NW 10.4 mph - N/A   Clear
10:51 PM 73.0 °F 30.9 °F 21% 29.84 in 10.0 mi NNW 11.5 mph - N/A   Clear
11:51 PM 66.9 °F 30.0 °F 25% 29.84 in 10.0 mi WNW 9.2 mph - N/A   Clear